User: anonymous   Login
Location: Acequia del Cap
(41.7000°N, 0.6167°E)
Time: 13:46:35
(UTC+00:00)
Language:

ATLAS CENTAUR R/B - Orbit

View from above orbital plane
View from above orbital plane
View from above satellite
View from above satellite

Ground track
Ground track

The orbit data is extracted from the following two-line orbital elements,

1 38770U 12048N   20286.76743008 0.00000700  00000-0  48711-4 0    08
2 38770  64.6606 151.1997 0135780 100.8015 259.1985 14.97969799    06
Epoch (UTC): 12 October 2020 18:25:05
Eccentricity: 0.0135780
inclination: 64.6606°
perigee height: 479 km
apogee height: 667 km
right ascension of ascending node: 151.1997°
argument of perigee: 100.8015°
revolutions per day: 14.97969799
mean anomaly at epoch: 259.1985°
orbit number at epoch: 0

The dashed part of the orbit path shows where the satellite is in the earth's shadow,  

DLR